This demonstration page uses our WeatherBlox Daily Observations layout. Learn more.

Left ArrowRight Arrow

39.92423, -83.80882

Hourly Observations for August 22, 2016

Temp ( °F °C ) Dew Point ( °F °C ) Humidity (%) Winds ( mph kmh ) Pressure ( in mb ) Visibility ( mi km ) Precip ( " mm )
12:56 am 00:56 Clear 57 13.9 55 12.8 93 93 W 6 9 30.09 1019 10 16.0934 N/A
1:56 am 01:56 Clear 57 13.9 55 12.8 93 93 N N/A 30.09 1019 10 16.0934 N/A
2:56 am 02:56 Clear 56 13.3 55 12.8 97 97 N N/A N/A 10 16.0934 N/A
3:56 am 03:56 Clear 56 13.3 55 12.8 97 97 undefined N/A N/A 10 16.0934 N/A
4:56 am 04:56 Clear with Mist and Fog 54 12.2 54 12.2 100 100 WSW 3 6 30.12 1020 3 4.82802 N/A
5:03 am 05:03 Clear with Mist and Fog 54 12 54 12 100 100 N N/A 30.15 1021 2.5 4.02335 N/A
5:10 am 05:10 Clear 54 12 54 12 100 100 N N/A 30.15 1021 8 12.87472 N/A
5:56 am 05:56 Clear with Mist and Fog 54 12.2 53 11.7 97 97 N N/A N/A 3 4.82802 N/A
6:00 am 06:00 Clear with Mist and Fog 54 12 54 12 100 100 N N/A 30.15 1021 1.75 2.816345 N/A
6:08 am 06:08 Clear with Mist and Fog 54 12 54 12 100 100 N N/A 30.15 1021 2.5 4.02335 N/A
6:15 am 06:15 Clear with Mist and Fog 54 12 54 12 100 100 N N/A N/A 4 6.43736 N/A
6:21 am 06:21 Clear with Mist and Fog 54 12 54 12 100 100 undefined N/A 30.15 1021 1.75 2.816345 N/A
6:50 am 06:50 Clear with Mist and Fog 54 12 54 12 100 100 undefined N/A 30.15 1021 4 6.43736 N/A
6:56 am 06:56 Sunny with Mist and Fog 54 12.2 54 12.2 100 100 undefined N/A 30.15 1021 5 8.0467 N/A
7:56 am 07:56 Sunny 57 13.9 57 13.9 100 100 N N/A 30.17 1022 8 12.87472 N/A
8:56 am 08:56 Sunny 63 17.2 59 15 87 87 W 3 6 30.2 1023 10 16.0934 N/A
9:56 am 09:56 Sunny 66 18.9 59 15 78 78 NNW 5 7 30.21 1023 10 16.0934 N/A
10:56 am 10:56 Sunny 70 21.1 58 14.4 66 66 W 5 7 30.23 1024 10 16.0934 N/A
11:56 am 11:56 Partly Cloudy 72 22.2 58 14.4 61 61 VRB 7 11 30.22 1024 9 14.48406 N/A
12:56 pm 12:56 Mostly Cloudy 73 22.8 54 12.2 51 51 N N/A 30.23 1024 10 16.0934 N/A
1:56 pm 13:56 Mostly Cloudy 75 23.9 55 12.8 50 50 undefined N/A N/A 10 16.0934 N/A
2:56 pm 14:56 Mostly Sunny 75 23.9 54 12.2 48 48 WSW 5 7 30.22 1023 10 16.0934 N/A
3:56 pm 15:56 Mostly Sunny 76 24.4 54 12.2 47 47 NW 6 9 N/A 10 16.0934 N/A
4:56 pm 16:56 Sunny 75 23.9 55 12.8 50 50 NNW 6 9 30.2 1023 10 16.0934 N/A
5:56 pm 17:56 Mostly Sunny 75 23.9 54 12.2 48 48 undefined N/A 30.2 1023 10 16.0934 N/A
6:56 pm 18:56 Mostly Cloudy 74 23.3 57 13.9 56 56 N N/A 30.2 1023 10 16.0934 N/A
7:56 pm 19:56 Sunny 71 21.7 57 13.9 61 61 N N/A 30.21 1023 10 16.0934 N/A
8:56 pm 20:56 Mostly Clear with Mist and Fog 63 17.2 59 15 87 87 N N/A 30.22 1023 5 8.0467 N/A
9:56 pm 21:56 Clear 62 16.7 59 15 90 90 N N/A 30.23 1024 10 16.0934 N/A
10:56 pm 22:56 Clear 59 15 57 13.9 93 93 SE 5 7 30.24 1024 10 16.0934 N/A

Powered by AerisWeather